RH
56 45 43 35 31 31 30 33 44 52 54 60 67 56 54 53 50 46 40 34 35 33 35 37 40 42 53 58 53 60 62 59 53 48 44 42 38 34 30 29 30 31 29
86 63 54 48 40 40 34 36 37 42 53 52 62 59 47 43 46 39 31 30 30 30 31 32 36 44 47 58 54 58 61 60 56 52 48 46 41 38 35 35 32 32 29
89 90 72 62 52 55 63 56 57 43 41 46 42 46 47 38 39 38 29 29 28 30 31 31 33 47 50 62 59 61 61 57 58 56 52 49 43 36 38 36 34 32 29
61 71 87 90 85 74 71 73 64 53 45 43 43 40 37 35 38 38 33 28 28 30 31 31 31 50 52 64 64 62 63 59 58 59 57 51 44 40 37 34 34 29 28
69 73 85 76 63 67 87 95 79 62 48 40 41 38 37 35 36 38 35 30 32 33 31 29 27 42 48 58 64 63 67 65 62 60 59 54 49 43 40 38 36 33 35
76 85 85 82 75 68 66 71 89 79 60 51 44 44 38 35 35 38 36 34 36 34 34 28 26 35 47 55 60 62 59 56 51 50 51 52 50 47 42 42 42 40 42
78 89 96 88 71 67 69 78 80 64 49 45 48 46 42 39 38 38 40 38 39 38 38 33 26 29 38 52 60 66 61 58 53 50 46 41 40 40 44 47 46 45 44
81 91 100 97 68 68 71 73 74 73 61 56 58 56 49 40 42 42 40 39 42 48 44 39 29 25 29 40 50 54 50 46 48 43 38 40 39 42 50 51 48 46 42
81 86 85 82 74 76 73 76 73 68 67 61 63 62 49 47 46 43 43 43 47 48 43 40 34 29 26 29 32 37 37 46 40 36 40 40 44 49 51 53 54 48 49
87 88 78 80 74 76 82 77 74 78 70 66 69 68 54 54 48 48 46 45 52 59 47 46 43 37 29 28 28 30 32 34 37 38 40 42 51 56 51 51 50 58 63
84 100 94 82 94 100 88 75 68 70 72 69 70 75 68 58 53 50 49 48 60 56 55 56 53 47 39 32 31 31 33 33 36 39 42 44 45 44 49 59 69 67 77
78 91 86 100 100 100 100 94 92 88 78 75 70 74 76 67 63 57 51 53 66 70 61 53 63 48 47 43 40 38 39 39 41 44 48 55 62 65 69 69 66 76 80
78 100 100 100 100 100 100 100 100 94 88 81 78 81 87 80 68 69 68 67 77 86 75 64 78 75 55 43 42 42 49 52 54 60 65 70 74 73 72 70 77 93 91
100 100 100 100 100 100 100 100 100 93 84 83 83 89 96 95 87 86 84 74 88 93 83 61 76 75 64 60 57 59 60 63 68 70 74 82 83 83 82 82 94 94 82
99 100 100 100 100 87 100 100 100 100 96 92 83 92 95 99 96 94 92 80 80 79 80 73 59 61 70 71 72 75 79 80 83 81 88 88 84 84 84 96 100 84 81
97 100 100 100 100 100 87 100 100 100 100 100 97 92 100 100 100 100 99 95 88 80 76 70 73 74 76 75 80 87 96 100 99 99 100 99 88 86 92 100 91 79 91
99 100 100 100 100 78 94 88 99 100 100 100 100 98 100 99 100 100 100 98 97 97 94 87 85 87 88 95 93 99 100 100 100 100 98 92 97 85 97 89 91 100 91
100 100 100 100 100 100 100 78 86 100 88 100 100 100 100 100 100 100 100 100 100 100 100 100 100 100 100 100 100 100 100 100 100 100 100 96 100 100 98 99 98 87 92
100 100 91 100 100 100 100 100 68 58 68 95 100 100 100 100 100 100 100 100 100 100 100 100 100 100 100 100 100 100 100 100 100 100 100 98 95 100 99 98 94 100 100
100 100 85 100 97 100 98 91 80 78 94 99 100 100 100 93 100 100 100 100 100 100 100 100 100 100 100 100 100 100 100 100 94 100 100 99 95 100 100 79 96 100 99
100 98 100 100 90 100 100 100 64 84 100 100 100 100 100 100 100 100 100 100 100 100 100 100 100 100 100 100 100 100 100 100 100 93 99 100 100 87 78 80 94 96 86
100 100 92 100 100 91 100 100 89 79 90 94 96 100 100 100 100 100 98 94 97 100 100 100 100 100 100 100 99 100 100 100 89 81 92 88 78 61 64 81 84 66 72
100 100 100 100 100 73 83 92 84 99 100 100 100 98 98 91 88 81 92 95 99 100 100 99 97 98 96 94 80 64 82 79 91 90 84 80 71 66 60 63 67 71 87
100 100 100 100 90 96 96 82 92 100 100 100 100 100 100 100 100 100 100 100 100 100 100 100 100 99 98 100 99 99 100 88 72 75 82 93 82 84 99 100 100 100 100
57 99 100 100 100 100 91 94 92 100 100 100 100 100 100 100 100 100 100 100 100 100 100 100 100 100 100 100 91 81 83 89 98 100 100 100 100 100 100 100 100 100 100
67 26 58 99 100 100 100 100 100 100 100 100 100 100 100 100 100 100 98 97 72 69 84 77 70 71 79 92 100 100 100 100 100 100 100 100 100 100 100 100 100 100 100
Wind_Speed
43 41 39 37 35 35 33 34 34 33 34 31 30 27 26 27 27 27 29 28 27 28 28 28 28 27 27 28 29 29 31 31 32 33 34 33 34 35 36 37 38 40 41
44 43 40 38 37 35 35 35 35 34 34 33 32 32 30 30 30 29 30 28 28 27 26 26 27 29 28 29 31 30 32 33 34 34 35 35 35 36 38 39 40 41 43
46 45 44 42 40 38 36 35 37 37 35 35 35 35 34 33 33 33 31 29 28 26 27 27 28 29 29 29 31 31 33 34 35 35 36 36 36 37 39 40 41 43 43
48 45 43 43 42 41 40 38 38 37 38 36 35 36 37 37 35 34 33 29 27 27 26 29 29 28 30 30 31 30 32 34 36 37 37 38 38 39 40 42 43 43 44
49 46 44 43 42 42 43 43 40 38 38 38 38 38 38 38 36 35 33 30 27 26 28 29 29 29 30 30 30 31 32 34 36 37 37 39 40 41 42 43 43 45 47
49 49 46 44 44 43 44 42 42 41 40 39 38 38 37 37 36 34 32 30 27 27 29 30 30 30 29 30 30 31 33 35 37 37 39 40 41 42 43 44 46 47 49
51 46 44 45 45 42 42 42 41 39 38 37 36 38 37 36 34 32 31 30 28 30 31 31 31 31 30 30 31 32 35 37 39 40 40 40 43 44 44 46 47 49 50
54 50 48 48 45 43 43 43 43 42 41 39 38 37 36 34 33 31 30 29 29 31 32 32 32 31 32 31 32 34 35 38 39 40 40 41 43 44 46 48 50 52 54
54 52 50 51 49 47 46 46 45 44 43 41 39 37 35 34 34 32 31 31 31 30 30 32 32 32 32 33 34 36 37 39 40 40 42 43 44 46 47 50 51 54 57
56 54 51 54 53 49 48 48 45 43 43 42 39 37 36 34 33 33 32 33 32 31 31 30 32 33 33 33 34 36 36 37 40 41 44 45 47 48 50 52 54 57 59
46 52 55 57 51 49 49 49 47 46 45 44 41 38 37 36 35 35 35 34 33 32 32 32 32 33 35 36 37 38 39 40 42 43 45 47 48 50 52 54 56 57 57
35 46 43 50 58 54 54 52 50 48 46 46 44 42 40 39 38 37 37 36 37 37 36 34 34 34 35 37 38 40 41 42 43 44 46 49 50 52 54 56 56 57 59
48 44 51 58 57 58 60 57 56 51 49 48 45 45 44 42 41 40 40 40 40 41 40 39 39 38 38 38 39 40 41 43 45 47 48 50 52 55 56 56 58 61 64
44 48 45 48 56 61 61 63 59 56 53 52 50 47 47 47 45 44 44 44 44 43 44 44 42 43 43 43 44 45 46 47 48 49 50 52 54 57 58 58 62 64 66
57 48 43 46 48 53 57 57 59 56 55 56 55 51 48 50 50 50 49 48 48 46 46 46 47 48 48 49 50 50 51 51 53 53 54 55 58 60 61 64 66 70 69
75 63 56 50 50 51 53 55 57 58 58 60 58 53 50 51 52 53 53 53 52 51 51 49 50 52 54 54 54 55 56 58 60 60 60 61 62 62 63 67 69 70 71
77 85 81 71 64 42 43 45 49 55 58 63 63 62 59 55 55 56 57 57 57 56 55 55 55 56 57 58 59 60 60 62 65 63 64 64 65 66 68 70 70 71 74
81 84 79 82 79 64 57 64 68 67 64 64 63 66 64 64 64 60 58 59 59 59 60 59 60 59 59 61 62 65 64 64 64 65 63 67 69 67 72 74 73 74 73
85 87 86 87 87 81 84 85 72 67 73 76 72 69 66 65 64 65 64 63 64 64 63 62 62 61 60 62 61 61 64 64 65 66 66 67 68 70 73 75 74 75 79
78 90 90 94 93 90 87 82 77 82 75 68 75 70 69 67 69 68 68 68 67 66 67 65 66 65 66 63 63 64 65 64 67 68 70 72 69 74 75 74 74 78 83
86 88 95 94 93 97 93 91 84 86 80 78 68 68 68 73 75 76 73 71 69 70 71 69 67 68 69 68 69 66 68 67 68 73 74 72 73 76 80 77 79 83 85
102 92 90 96 98 95 99 97 88 75 80 79 74 71 67 65 66 66 69 74 75 73 72 71 69 67 68 67 68 67 69 74 75 77 78 78 80 84 82 83 86 89 89
107 105 98 95 95 99 92 93 91 86 80 78 74 68 72 74 77 80 76 69 70 69 72 73 70 70 71 73 76 76 76 78 81 82 84 83 84 85 87 87 90 91 92
109 107 106 100 98 97 90 83 80 81 92 91 84 82 83 80 76 78 81 84 84 75 73 72 71 75 75 78 79 78 79 80 82 82 85 86 87 87 87 87 91 91 92
110 111 107 104 102 100 90 93 97 87 78 83 88 86 84 82 85 87 86 86 85 83 83 82 81 79 80 82 85 90 91 87 85 82 80 85 88 88 89 89 91 98 100
106 104 113 114 108 103 104 90 89 96 92 87 92 96 92 88 86 90 91 89 96 96 94 92 92 93 90 91 90 87 87 87 87 88 89 91 95 97 96 98 100 105 108
Wind_Direction
237 238 243 246 248 251 253 253 256 259 261 265 269 275 278 281 281 284 289 293 291 292 290 293 292 292 296 297 297 294 295 299 300 301 305 308 309 309 309 309 311 313 315
241 241 242 246 248 253 257 258 258 260 263 263 268 272 279 282 286 287 289 290 291 290 290 291 292 294 294 294 297 296 298 299 300 302 308 308 310 310 312 313 313 315 316
240 243 242 244 247 252 257 259 264 263 262 265 270 272 277 281 284 287 290 290 289 287 290 292 292 288 292 293 293 293 296 299 301 303 307 308 310 311 314 314 315 316 316
237 240 243 247 249 252 256 258 264 265 265 266 270 274 277 280 282 285 287 289 287 289 291 292 293 288 291 290 293 295 296 297 299 303 307 309 311 312 314 315 315 317 318
240 240 245 246 249 252 256 258 259 265 265 268 272 273 276 279 280 282 284 286 284 285 290 292 292 289 290 290 293 296 297 299 300 303 307 308 309 312 313 314 314 316 319
238 240 246 248 251 253 256 261 260 263 266 269 273 274 275 277 277 278 280 283 284 287 293 292 291 291 290 293 295 296 298 299 301 304 305 307 309 310 312 313 315 317 318
237 240 243 248 252 254 256 257 259 261 264 268 274 273 274 276 275 275 275 280 285 290 292 291 290 289 291 292 293 295 298 300 301 302 306 308 309 309 310 312 313 315 317
236 239 242 244 248 253 256 257 258 260 265 269 273 271 271 271 270 270 274 278 282 287 289 289 288 290 290 291 292 294 297 299 301 303 305 308 307 308 309 310 312 315 315
237 238 242 241 244 251 253 256 257 259 263 268 271 267 267 267 266 267 269 276 280 284 290 287 287 290 292 291 293 294 296 297 300 303 305 306 306 307 307 308 311 313 315
237 240 244 243 250 248 250 252 256 258 261 263 267 265 266 266 262 266 268 275 277 283 285 287 287 288 289 290 291 293 294 296 298 302 303 304 304 304 306 308 311 313 316
241 247 251 249 249 251 247 251 254 259 260 260 262 264 266 265 263 267 269 273 278 281 283 285 287 286 287 287 289 291 292 293 296 298 301 303 303 304 306 308 310 314 316
239 251 249 250 251 248 248 250 253 256 257 258 261 262 264 264 263 267 271 272 277 281 285 285 287 289 286 287 288 289 291 294 296 298 300 302 303 305 306 307 310 311 312
242 246 252 253 252 247 245 251 251 252 257 258 258 261 263 263 263 267 271 274 277 281 283 283 288 289 292 292 293 293 294 296 297 298 300 302 303 303 304 305 307 308 308
218 245 236 249 254 253 250 246 249 253 256 257 259 258 259 261 263 267 270 271 273 276 281 283 285 287 289 291 293 294 293 296 298 298 299 300 302 301 301 304 305 306 305
219 222 233 245 249 248 245 242 246 251 255 256 258 257 259 260 262 267 269 270 273 275 278 280 282 284 287 290 290 291 291 293 294 294 295 295 298 299 301 304 305 304 309
219 230 233 236 240 239 240 245 245 249 253 255 256 257 260 261 263 266 268 268 271 274 276 277 279 282 285 288 288 290 291 291 289 290 292 294 297 299 300 300 303 306 307
227 229 232 236 231 230 240 248 249 250 253 254 256 257 261 263 265 266 266 268 270 272 274 278 280 282 284 286 288 287 287 288 289 291 293 296 297 297 300 302 303 306 305
226 236 234 231 235 241 247 251 252 252 253 258 258 258 261 262 264 266 268 270 271 273 276 278 280 283 284 287 287 289 290 288 289 292 294 297 300 298 302 303 304 304 307
222 227 232 232 235 245 249 252 252 254 258 258 258 259 259 262 262 263 267 269 271 273 275 277 279 282 283 282 283 286 287 290 291 292 294 295 295 299 301 302 305 306 307
222 224 231 232 232 238 246 250 252 254 257 258 256 259 258 258 260 263 266 269 270 271 274 276 277 277 279 280 282 284 285 286 288 289 291 293 294 297 297 299 302 304 307
220 227 230 234 236 238 242 245 249 253 257 261 255 256 261 260 263 266 268 269 270 271 273 275 275 275 276 276 278 282 285 286 287 288 290 291 294 295 296 299 300 302 305
224 226 232 235 236 241 241 245 249 253 255 257 257 257 260 264 260 262 267 268 269 271 272 272 271 272 274 275 276 279 283 283 284 285 287 288 290 293 297 297 299 301 303
229 229 232 236 238 238 244 244 245 250 254 255 257 257 264 263 265 266 268 269 270 268 267 267 268 270 271 275 277 277 278 284 284 287 289 291 293 294 296 297 297 300 301
228 230 229 234 240 241 242 241 246 248 252 255 261 262 262 264 266 263 266 266 268 264 264 266 268 273 275 278 280 281 280 280 280 285 287 290 292 295 296 296 297 298 297
229 230 231 234 237 240 244 245 243 245 253 256 253 257 261 259 260 262 267 263 265 264 266 269 270 273 273 276 277 282 285 286 288 288 290 291 291 291 292 292 292 295 297
237 234 233 233 234 236 238 241 243 244 246 246 249 250 252 254 258 262 259 259 262 262 265 267 271 274 274 276 277 277 279 281 281 280 281 283 285 286 288 290 291 293 297